loading
DOY 203 | 2024-07-21T10:06:20Z
Showing default

SECOR 3, 1208

Orbit data source: Space-Track

SECOR 3, 1208 is an American payload satellite in LEO that was launched on Tue, 09 Mar 1965 UTC via a Thor SLV-2 Agena D launch vehicle from the Air Force Western Test Range (AFWTR). Payloads include a variety of satellites, spacecraft, and rockets equipped with specific instruments for various scientific and technological missions. These include communications satellites like Starlink; space stations such as the ISS; scientific satellites like the Hubble; Earth observation satellites from companies like Planet Labs, Umbra, and HawkEye 360; GPS; miniature CubeSats for education and research; and military/defense satellites.

Loading next visibility...
Loading greatness...
SECOR 3 details
NORAD ID1208
COSPAR ID
1965-016E
Orbit
LEO
Last TLE update14 hours ago
Origin
Flag of USACE/GIMR (US)
ManufacturerITT
BusSecor
MotorUnknown
Mass18 kg wet, 18 kg dry
Launch date (UTC)
1965-03-09 (59 years ago)
Launch vehicle
Thor SLV-2 Agena D
Launch site
Air Force Western Test Range (AFWTR)
Object type
Payload
Rocket body
Debris
Radar Cross SectionMedium (>0.1 m² and <1 m²)
Predictive object data (real-time)
Latitude47.22756°
Longitude135.33268°
Altitude929.412 km
Speed7.385 km/s
Apparent Right ascension06h 13m 00s
Apparent Declination22° 12' 53"
Sunlit
Object is in daylight
Predictive observer data (real-time)
Local Sidereal Time23:04:32
Azimuth62.285° ENE
Elevation1.927°
Doppler factor1
Orbital elements
Apogee922.846 km
Perigee889.596 km
Semi-major axis7,284.358 km
Eccentricity0.0022823
Inclination70.0773°
RAAN227.0122°
Arg. of periapsis280.4076°
True anomaly253.20939°
Mean anomaly253.4599°
Mean motion3.49105 °/min
BSTAR0.00012352
Period103.12 mins
Definitive object data (Epoch: 2024-07-20T20:33:42.774Z)
Latitude5.93143°
Longitude157.32505°
Altitude914.699 km
Speed7.393 km/s
True Right ascension02h 59m 27s
True Declination5° 53' 49"
Sunlit
Object was in daylight at TLE epoch
TLE from 14 hours ago
0 SECOR 3
1 01208U 65016E   24202.85674507  .00000117  00000-0  12352-3 0  9996
2 01208  70.0773 227.0122 0022823 280.4076 253.4599 13.95854556 21985
Epoch: 2024-07-20T20:33Z
No data available

SECOR 3 Visibility forecast

Observer location: 39.9160978°, -105.1181434

SECOR 3 is not visible in the next 10 days
Span
Click to sort rows by Start time (UTC) header in descending order
Start Az.
Max El. time (UTC)
Max El. Az.
Max El.
End time (UTC)
End Az.